LEMUR 2 NATE

Last updated on Thu Sep 29 2016 17:45:39 GMT+0000 (Coordinated Universal Time)

1 41598U 16019E 16273.43604880 .00083044 00000-0 78226-3 0 9993 2 41598 51.6384 252.3367 0006241 57.1075 303.0520 15.66340264 15626

Satellite not in orbit